COSMOS 2250

Satellite information

Favourite Embed

Satellite Type and Status

PAYLOADIN ORBIT

Key statistics

Satellite COSMOS 2250 at a glance.

Uptime

11746

Days in orbit

Revolutions

≈ 12.6

Per day

Orbit

LEO

Low Earth Orbit

Inclination

82.6

Latest

Satellite identification and parameters

Extended collection of information and parameters for COSMOS 2250.

Object identification

Identified? True

Debris? False

Object name: COSMOS 2250

International designator: 1993-030F

Object number (NORAD): 22651

Object ID (CCSDS): 22651

Country: COMMONWEALTH OF INDEPENDENT STATES (CIS)

Current information (Y/N): Y

RCS size: LARGE

Orbital parameters

Period: 114.006 minutes

Inclination: 82.5828 deg

SMA: 7788.333 km

Apoapsis: 1417.631 km

Periapsis: 1402.766 km

RAAN: 181.1769 deg

Eccentricy: 0.0009543

Argument of periapsis: 357.3685 deg

Mean anomaly: 176.075 deg

Mean motion: 12.63094869 rev/day

Mean motion (dot): 0.00000021 rev/day2

B* drag term: 0.000056632 1/REarth

Two-line elements (TLE)

Creation date: July 8, 2025, 2:27 a.m.

Reference frame: TEME

Reference center: EARTH

Epoch: July 7, 2025, 6:30 p.m. UTC

TLE line 0: 0 COSMOS 2250

TLE line 1: 1 22651U 93030F 25188.77135520 .00000021 00000-0 56632-4 0 9994

TLE line 2: 2 22651 82.5828 181.1769 0009543 357.3685 176.0750 12.63094869482538

Live tracking on map

Real-time ground track for satellite COSMOS 2250.

In-orbit conjunctions

A list of the most updated potential collisions computed for object COSMOS 2250.

Target Orbit TCA Probability of collision Miss distance Type
FENGYUN 1C DEB SSO 2025-04-10 18:55:46 0.0003558722 311.0 (m) DEBRIS

Associated space launch

Second generation store-dump military communications satellite

COSMOS 2250 was lifted into orbit during the mission ‘Tsiklon-3 | Strela-3 89 to 94’, on board a Tsiklon-3 space rocket.

The launch took place on May 11, 1993, 2:56 p.m. from 32/1.

For more information about the launch, click the button.

Launch to space Tsiklon-3 | Strela-3 89 to 94
Tsiklon-3 | Strela-3 89 to 94

Agency: N/A

Status: Launch Successful

Launch date: May 11, 1993, 2:56 p.m. UTC

Rocket: Tsiklon-3

Launch pad: 32/1

Location: Plesetsk Cosmodrome, Russian Federation

...

Latest news about this satellite

There are no fresh news available about this satellite. Check back as we update our databases every day.


Newsletter sign-up

Weekly statistics, charts and insights to help you stay on top of the space industry.